CW5439 Weather Reports


time (UTC)temp
C
wind
direction
speed
KPH
gust
KPH
rain 1hr
cm
rain 24hr
cm
rain mn
cm
humidity
%
barometer
mb
20260508142705 14 246 8.0 16.1 0.00 0.00 0.00 59 1015.3
20260508142205 14 223 8.0 16.1 0.00 0.00 0.00 60 1015.3
20260508141709 13 247 8.0 16.1 0.00 0.00 0.00 62 1015.3
20260508141204 13 257 8.0 22.5 0.00 0.00 0.00 62 1015.4
20260508140205 14 259 11.3 22.5 0.00 0.00 0.00 62 1015.3
20260508135705 14 293 11.3 20.9 0.00 0.00 0.00 60 1015.1
20260508135205 14 236 9.7 19.3 0.00 0.00 0.00 62 1015.3
20260508134704 13 244 9.7 24.1 0.00 0.00 0.00 64 1015.3
20260508134205 13 216 11.3 24.1 0.00 0.00 0.00 63 1015.1
20260508133705 13 267 11.3 24.1 0.00 0.00 0.00 63 1015.1
20260508133206 13 281 11.3 20.9 0.00 0.00 0.00 62 1015.1
20260508132706 13 219 9.7 19.3 0.00 0.00 0.00 62 1015.1
20260508132205 13 238 8.0 19.3 0.00 0.00 0.00 64 1015.1
20260508131705 13 238 9.7 19.3 0.00 0.00 0.00 63 1015.0
20260508131206 13 258 8.0 19.3 0.00 0.00 0.00 63 1015.0
20260508130705 13 248 8.0 19.3 0.00 0.00 0.00 64 1014.9
20260508130205 13 277 9.7 25.7 0.00 0.00 0.00 63 1014.9
20260508125705 13 242 11.3 25.7 0.00 0.00 0.00 62 1014.9
20260508125205 13 215 11.3 25.7 0.00 0.00 0.00 63 1014.8
20260508124705 14 206 11.3 25.7 0.00 0.00 0.00 60 1014.8
20260508124205 15 250 11.3 25.7 0.00 0.00 0.00 59 1014.7
20260508123705 15 256 9.7 22.5 0.00 0.00 0.00 60 1014.7
20260508123205 15 217 9.7 22.5 0.00 0.00 0.00 58 1014.7
20260508122706 15 235 11.3 22.5 0.00 0.00 0.00 60 1014.8
20260508122206 14 247 11.3 24.1 0.00 0.00 0.00 60 1014.7
20260508121705 14 229 12.9 24.1 0.00 0.00 0.00 60 1014.7
20260508121221 13 259 12.9 30.6 0.00 0.00 0.00 61 1014.7
20260508120706 14 217 12.9 30.6 0.00 0.00 0.00 61 1014.7
20260508120205 13 219 16.1 30.6 0.00 0.00 0.00 61 1014.7
20260508115705 13 208 14.5 24.1 0.00 0.00 0.00 60 1014.7
20260508114705 14 247 11.3 22.5 0.00 0.00 0.00 63 1014.6
20260508114205 13 267 11.3 20.9 0.00 0.00 0.00 65 1014.6
20260508113705 13 256 9.7 19.3 0.00 0.00 0.00 65 1014.6
20260508112705 13 254 9.7 22.5 0.00 0.00 0.00 66 1014.5
20260508112206 14 261 9.7 22.5 0.00 0.00 0.00 66 1014.5
20260508111705 14 244 9.7 24.1 0.00 0.00 0.00 67 1014.5
20260508111205 13 171 11.3 24.1 0.00 0.00 0.00 66 1014.5
20260508110705 13 239 11.3 24.1 0.00 0.00 0.00 66 1014.5
20260508105705 13 244 9.7 20.9 0.00 0.00 0.00 68 1014.5
20260508105205 12 244 9.7 24.1 0.00 0.00 0.00 70 1014.5
20260508104706 12 269 11.3 24.1 0.00 0.00 0.00 71 1014.5
20260508104205 12 229 11.3 24.1 0.00 0.00 0.00 70 1014.5
20260508103705 12 238 8.0 17.7 0.00 0.00 0.00 70 1014.5
20260508103205 12 200 8.0 22.5 0.00 0.00 0.00 72 1014.5
20260508102705 12 216 9.7 22.5 0.00 0.00 0.00 71 1014.4
20260508101705 12 216 8.0 20.9 0.00 0.00 0.00 73 1014.2
20260508101205 12 241 8.0 20.9 0.00 0.00 0.00 72 1014.3
20260508100705 12 252 9.7 20.9 0.00 0.00 0.00 72 1014.3
20260508100205 11 244 9.7 20.9 0.00 0.00 0.00 72 1014.2
20260508095705 11 236 9.7 17.7 0.00 0.00 0.00 72 1014.2
20260508094706 11 250 11.3 24.1 0.00 0.00 0.00 70 1014.1
20260508094205 11 277 11.3 24.1 0.00 0.00 0.00 70 1014.0
20260508093705 11 243 11.3 24.1 0.00 0.00 0.00 71 1014.0
20260508093205 12 208 9.7 20.9 0.00 0.00 0.00 71 1014.0
20260508092705 12 239 11.3 20.9 0.00 0.00 0.00 70 1014.0
20260508092207 12 214 11.3 22.5 0.00 0.00 0.00 71 1014.0
20260508091205 12 213 8.0 22.5 0.00 0.00 0.00 71 1013.9
20260508090705 11 252 8.0 16.1 0.00 0.00 0.00 76 1013.9
20260508090206 11 232 8.0 17.7 0.00 0.00 0.00 78 1013.9
20260508085705 11 260 8.0 17.7 0.00 0.00 0.00 78 1013.9
20260508085205 10 270 8.0 14.5 0.00 0.00 0.00 79 1013.8
20260508084205 10 263 8.0 17.7 0.00 0.00 0.00 79 1013.8
20260508083706 10 235 8.0 17.7 0.00 0.00 0.00 80 1013.8
20260508083205 10 257 8.0 22.5 0.00 0.00 0.00 80 1013.7
20260508082706 10 207 9.7 22.5 0.00 0.00 0.00 80 1013.7
20260508082205 10 262 8.0 16.1 0.00 0.00 0.00 80 1013.6
20260508081705 10 257 8.0 14.5 0.00 0.00 0.00 82 1013.6
20260508081205 10 224 8.0 14.5 0.00 0.00 0.00 82 1013.6
20260508080709 10 240 8.0 17.7 0.00 0.00 0.00 83 1013.5
20260508080205 10 216 8.0 17.7 0.00 0.00 0.00 83 1013.4
20260508075206 10 242 6.4 12.9 0.00 0.00 0.00 85 1013.4
20260508074705 9 254 4.8 14.5 0.00 0.00 0.00 85 1013.3
20260508074206 9 258 6.4 14.5 0.00 0.00 0.00 84 1013.2
20260508073706 9 262 6.4 16.1 0.00 0.00 0.00 84 1013.2
20260508073206 9 233 6.4 16.1 0.00 0.00 0.00 84 1013.1
20260508072205 9 238 6.4 19.3 0.00 0.00 0.00 84 1013.0
20260508071705 10 250 8.0 19.3 0.00 0.00 0.00 85 1012.9
20260508070730 10 238 8.0 17.7 0.00 0.00 0.00 85 1012.8
20260508070221 10 251 8.0 17.7 0.00 0.00 0.00 85 1012.7
20260508065706 10 220 8.0 17.7 0.00 0.00 0.00 85 1012.8
20260508064705 10 236 6.4 16.1 0.00 0.00 0.00 85 1012.6
20260508064205 10 233 6.4 16.1 0.00 0.00 0.00 85 1012.6
20260508063710 10 219 6.4 14.5 0.00 0.00 0.00 85 1012.5
20260508063205 10 229 6.4 14.5 0.00 0.00 0.00 85 1012.4
20260508062707 10 211 4.8 12.9 0.00 0.00 0.00 86 1012.4
20260508062206 10 221 6.4 17.7 0.00 0.00 0.00 86 1012.4
20260508061705 9 249 8.0 17.7 0.00 0.00 0.00 86 1012.4
20260508060705 9 242 8.0 17.7 0.00 0.00 0.00 86 1012.2
20260508060205 9 186 8.0 17.7 0.00 0.00 0.00 86 1012.2
20260508055705 9 250 8.0 17.7 0.00 0.00 0.00 86 1012.1
20260508055206 9 241 6.4 14.5 0.00 0.00 0.00 86 1012.0
20260508054705 9 235 8.0 17.7 0.00 0.00 0.00 86 1012.0
20260508054207 9 232 8.0 17.7 0.00 0.00 0.00 86 1011.9
20260508053705 9 236 8.0 17.7 0.00 0.00 0.00 86 1011.8
20260508053205 8 211 8.0 16.1 0.00 0.00 0.00 86 1011.7
20260508052706 8 198 8.0 17.7 0.00 0.00 0.00 86 1011.7
20260508052206 8 204 8.0 17.7 0.00 0.00 0.00 86 1011.6
20260508051705 8 209 8.0 17.7 0.00 0.00 0.00 86 1011.6
20260508050205 8 223 9.7 19.3 0.00 0.00 0.00 86 1011.5
20260508045705 8 215 9.7 19.3 0.00 0.00 0.00 86 1011.6
20260508045206 8 212 8.0 17.7 0.00 0.00 0.00 86 1011.5
20260508044705 8 189 8.0 19.3 0.00 0.00 0.00 86 1011.5
20260508044205 8 215 9.7 20.9 0.00 0.00 0.00 86 1011.4
20260508043705 8 225 11.3 20.9 0.00 0.00 0.00 86 1011.4
20260508043206 8 183 11.3 20.9 0.00 0.00 0.00 86 1011.3
20260508042205 8 205 11.3 22.5 0.00 0.00 0.00 85 1011.2
20260508041705 8 211 11.3 22.5 0.00 0.00 0.00 85 1011.1
20260508041205 8 175 11.3 20.9 0.00 0.00 0.00 85 1011.1
20260508040707 8 201 9.7 20.9 0.00 0.00 0.00 85 1011.1
20260508040205 8 224 8.0 19.3 0.00 0.00 0.00 85 1011.1
20260508035705 8 247 8.0 19.3 0.00 0.00 0.00 85 1011.0
20260508034705 8 204 8.0 16.1 0.00 0.00 0.00 84 1010.9
20260508034206 8 223 6.4 16.1 0.00 0.00 0.00 84 1010.9
20260508033705 8 204 6.4 14.5 0.00 0.00 0.00 84 1011.0
20260508033205 8 219 6.4 17.7 0.00 0.00 0.00 84 1011.0
20260508032205 8 248 8.0 16.1 0.00 0.00 0.00 84 1011.0
20260508031705 8 199 8.0 16.1 0.00 0.00 0.00 84 1011.0
20260508031204 8 212 6.4 14.5 0.00 0.00 0.00 83 1011.0
20260508030705 8 214 6.4 14.5 0.00 0.00 0.00 83 1011.0
20260508030205 8 233 4.8 14.5 0.00 0.00 0.00 82 1011.0
20260508025705 8 202 6.4 12.9 0.00 0.00 0.00 82 1011.0
20260508025205 8 217 6.4 19.3 0.00 0.00 0.00 82 1010.9
20260508024705 8 222 6.4 19.3 0.00 0.00 0.00 82 1011.0
20260508022706 8 200 6.4 16.1 0.00 0.00 0.00 81 1010.9
20260508022206 8 192 6.4 16.1 0.00 0.00 0.00 81 1010.9
20260508021705 8 190 6.4 16.1 0.00 0.00 0.00 81 1010.9
20260508021205 8 160 8.0 17.7 0.00 0.00 0.00 80 1010.9
20260508020705 8 224 8.0 17.7 0.00 0.00 0.00 81 1010.9
20260508020205 8 202 8.0 17.7 0.00 0.00 0.00 80 1010.8
20260508015705 8 196 8.0 19.3 0.00 0.00 0.00 80 1010.8
20260508015205 8 232 8.0 19.3 0.00 0.00 0.00 80 1010.9
20260508014705 8 205 8.0 16.1 0.00 0.00 0.00 80 1010.9
20260508014205 8 177 8.0 17.7 0.00 0.00 0.00 80 1010.9
20260508013209 8 220 11.3 25.7 0.00 0.00 0.00 80 1011.0
20260508012705 8 230 11.3 25.7 0.00 0.00 0.00 80 1010.9
20260508012206 8 180 11.3 25.7 0.00 0.00 0.00 80 1010.8
20260508011705 8 211 11.3 22.5 0.00 0.00 0.00 81 1010.8
20260508011205 8 222 9.7 17.7 0.00 0.00 0.00 81 1010.9
20260508010705 8 224 8.0 14.5 0.00 0.00 0.00 81 1010.8
20260508010205 8 214 8.0 17.7 0.00 0.00 0.00 82 1010.8
20260508005705 8 223 9.7 17.7 0.00 0.00 0.00 82 1010.9
20260508004705 8 178 6.4 14.5 0.00 0.00 0.00 83 1010.9
20260508004205 8 217 4.8 11.3 0.00 0.00 0.00 83 1010.9
20260508003705 7 228 3.2 9.7 0.00 0.00 0.00 83 1010.9
20260508003206 7 240 3.2 11.3 0.00 0.00 0.00 83 1010.9
20260508002705 8 220 4.8 11.3 0.00 0.00 0.00 83 1010.9
20260508002225 8 219 4.8 14.5 0.00 0.00 0.00 83 1010.9
20260508001708 8 241 4.8 14.5 0.00 0.00 0.00 84 1010.9
20260508001205 8 259 4.8 11.3 0.00 0.00 0.00 84 1011.0
20260508000708 8 243 4.8 12.9 0.00 0.00 0.00 84 1010.9
20260508000205 8 246 6.4 16.1 0.00 0.00 0.00 84 1010.9
20260507235705 7 255 6.4 16.1 0.00 0.00 0.00 85 1010.9
20260507235205 7 237 6.4 16.1 0.00 0.00 0.00 85 1010.9
20260507234709 7 242 6.4 14.5 0.00 0.00 0.00 85 1010.8
20260507234205 7 262 3.2 8.0 0.00 0.00 0.00 84 1010.9
20260507233710 7 229 1.6 8.0 0.00 0.00 0.00 83 1010.8
20260507233206 7 219 1.6 6.4 0.00 0.00 0.00 83 1010.9
20260507232705 7 234 3.2 6.4 0.00 0.00 0.00 82 1010.9
20260507232206 7 238 1.6 4.8 0.00 0.00 0.00 82 1011.0
20260507231705 7 233 1.6 3.2 0.00 0.00 0.00 82 1010.9
20260507231205 7 248 0.0 3.2 0.00 0.00 0.00 81 1010.9
20260507230704 7 248 0.0 3.2 0.00 0.00 0.00 81 1010.9
20260507230229 7 248 0.0 3.2 0.00 0.00 0.00 81 1010.9
20260507225706 8 212 0.0 3.2 0.00 0.00 0.00 81 1010.9
20260507225207 8 212 0.0 4.8 0.00 0.00 0.00 81 1010.9
20260507224705 8 212 1.6 6.4 0.00 0.00 0.00 80 1010.9
20260507224205 8 212 1.6 11.3 0.00 0.00 0.00 80 1010.8
20260507223705 8 244 3.2 14.5 0.00 0.00 0.00 80 1010.8
20260507222705 8 230 4.8 14.5 0.00 0.00 0.00 80 1010.9
20260507222205 8 232 4.8 12.9 0.00 0.00 0.00 80 1010.8
20260507221727 8 250 4.8 16.1 0.00 0.00 0.00 80 1010.8
20260507221205 8 226 4.8 16.1 0.00 0.00 0.00 79 1010.8
20260507220227 9 228 6.4 16.1 0.00 0.00 0.00 79 1010.8
20260507215705 9 225 6.4 16.1 0.00 0.00 0.00 79 1010.8
20260507215206 9 199 8.0 16.1 0.00 0.00 0.00 79 1010.8
20260507214205 9 225 6.4 17.7 0.00 0.00 0.00 78 1010.8
20260507213704 9 234 8.0 17.7 0.00 0.00 0.00 78 1010.8
20260507212705 9 167 8.0 22.5 0.00 0.00 0.00 77 1010.8
20260507212205 9 204 6.4 16.1 0.00 0.00 0.00 77 1010.8
20260507211705 10 204 6.4 14.5 0.00 0.00 0.00 77 1010.9
20260507211205 10 215 6.4 14.5 0.00 0.00 0.00 77 1010.9
20260507210705 10 223 6.4 17.7 0.00 0.00 0.00 76 1010.9
20260507210207 10 197 8.0 17.7 0.00 0.00 0.00 76 1010.8
20260507205705 10 215 8.0 20.9 0.00 0.00 0.00 76 1010.8
20260507205205 10 221 8.0 24.1 0.00 0.00 0.00 75 1010.8
20260507204705 10 198 8.0 24.1 0.00 0.00 0.00 75 1010.8
20260507204205 10 212 8.0 20.9 0.00 0.00 0.00 75 1010.8
20260507203706 10 212 9.7 20.9 0.00 0.00 0.00 75 1010.7
20260507203212 10 204 11.3 20.9 0.00 0.00 0.00 74 1010.7
20260507202705 10 196 9.7 24.1 0.00 0.00 0.00 74 1010.7
20260507202206 11 221 9.7 29.0 0.00 0.00 0.00 74 1010.6
20260507201705 11 148 12.9 29.0 0.00 0.00 0.00 74 1010.5
20260507201205 11 212 14.5 29.0 0.00 0.00 0.00 73 1010.4
20260507200705 11 184 14.5 27.4 0.00 0.00 0.00 73 1010.3
20260507200205 11 240 14.5 27.4 0.00 0.00 0.00 73 1010.2
20260507195705 11 215 14.5 27.4 0.00 0.00 0.00 72 1010.2
20260507195206 11 199 14.5 27.4 0.00 0.00 0.00 72 1010.2
20260507194205 11 194 11.3 24.1 0.00 0.00 0.00 71 1010.1
20260507193705 11 223 9.7 24.1 0.00 0.00 0.00 71 1010.1
20260507192206 11 195 12.9 25.7 0.00 0.00 0.00 71 1010.0
20260507191706 11 211 11.3 22.5 0.00 0.00 0.00 71 1010.0
20260507191205 11 173 11.3 22.5 0.00 0.00 0.00 71 1010.0
20260507190705 11 221 11.3 22.5 0.00 0.00 0.00 71 1010.1
20260507190205 11 188 12.9 22.5 0.00 0.00 0.00 71 1010.1
20260507185705 11 175 14.5 22.5 0.00 0.00 0.00 70 1010.1
20260507184705 11 183 12.9 27.4 0.00 0.00 0.00 69 1010.0
20260507184205 11 221 14.5 29.0 0.00 0.00 0.00 69 1010.0
20260507183705 11 252 16.1 29.0 0.00 0.00 0.00 68 1009.9
20260507183206 12 190 14.5 29.0 0.00 0.00 0.00 69 1010.0
20260507182705 12 181 14.5 25.7 0.00 0.00 0.00 68 1010.0
20260507182206 12 209 14.5 27.4 0.00 0.00 0.00 68 1009.9
20260507181704 12 223 12.9 29.0 0.00 0.00 0.00 69 1009.9
20260507181206 12 168 14.5 32.2 0.00 0.00 0.00 69 1009.9
20260507180705 12 194 14.5 32.2 0.00 0.00 0.00 69 1009.9
20260507180205 12 213 16.1 32.2 0.00 0.00 0.00 69 1009.8
20260507175706 12 196 14.5 29.0 0.00 0.00 0.00 69 1009.8
20260507175205 11 208 9.7 20.9 0.00 0.00 0.00 70 1009.8
20260507173707 11 194 6.4 14.5 0.00 0.00 0.00 73 1009.9
20260507172705 11 195 4.8 16.1 0.00 0.00 0.00 73 1009.9
20260507171707 11 198 8.0 16.1 0.00 0.00 0.00 73 1009.9
20260507171205 11 199 6.4 14.5 0.00 0.00 0.00 73 1009.9
20260507170206 11 211 4.8 11.3 0.00 0.00 0.00 74 1009.9
20260507165206 11 199 4.8 9.7 0.00 0.00 0.00 75 1010.0
20260507164705 11 213 3.2 9.7 0.00 0.00 0.00 74 1010.1
20260507164205 11 190 1.6 4.8 0.00 0.00 0.00 75 1010.1
20260507163705 11 227 1.6 8.0 0.00 0.00 0.00 75 1010.2
20260507163205 11 222 1.6 8.0 0.00 0.00 0.00 75 1010.2
20260507162705 11 232 3.2 9.7 0.00 0.00 0.00 75 1010.2
20260507162206 11 207 4.8 9.7 0.00 0.00 0.00 74 1010.2
20260507161708 11 200 4.8 12.9 0.00 0.00 0.00 75 1010.2
20260507161205 11 227 6.4 14.5 0.00 0.00 0.00 75 1010.3
20260507160705 11 264 6.4 14.5 0.00 0.00 0.00 76 1010.2
20260507160206 11 288 6.4 14.5 0.00 0.00 0.00 76 1010.3
20260507155706 11 226 4.8 12.9 0.00 0.00 0.00 76 1010.4
20260507155206 11 257 6.4 12.9 0.00 0.00 0.00 75 1010.4
20260507154705 11 261 6.4 16.1 0.00 0.00 0.00 75 1010.4
20260507153206 11 258 9.7 20.9 0.00 0.00 0.00 74 1010.4
20260507152706 11 231 11.3 20.9 0.00 0.00 0.00 72 1010.5
20260507151205 12 225 14.5 30.6 0.00 0.00 0.00 67 1010.5
20260507150205 12 202 14.5 29.0 0.00 0.00 0.00 67 1010.3
20260507145704 12 180 14.5 29.0 0.00 0.00 0.00 67 1010.3
20260507145207 12 205 14.5 32.2 0.00 0.00 0.00 67 1010.4
20260507144705 12 167 12.9 32.2 0.00 0.00 0.00 67 1010.6
20260507144205 12 207 11.3 32.2 0.00 0.00 0.00 67 1010.5
20260507143705 12 213 11.3 33.8 0.00 0.00 0.00 68 1010.5
20260507143205 12 181 12.9 33.8 0.00 0.00 0.00 67 1010.6